Weather Roundup
Issued by NWS Springfield, MO

Home | Current Version | Previous Version | Text Only | Print | Product List | Glossary On
Versions: 1 2 3 4 5 6 7 8 9 10 11 12 13 14 15 16 17 18 19 20 21 22 23 24 25 26 27 28 29 30 31 32 33 34 35 36 37 38 39 40 41 42 43 44 45 46 47 48 49 50
000
NZUS99 KSGF 190459
HRRSGF

HOURLY WEATHER
NATIONAL WEATHER SERVICE SPRINGFIELD MO
1200 AM CDT SUN APR 19 2015

......SGF CWA......

CITY           SKY/WX    TMP DP  RH WIND       PRES   REMARKS
SPRINGFIELD    CLEAR     55  52  89 SE3       29.81F
JOPLIN         PTCLDY    60  57  89 E8        29.77F
WEST PLAINS    PTCLDY    58  54  86 CALM      29.82F
ROLLA          PTCLDY    58  55  90 E7        29.80F
OSAGE BEACH    PTCLDY    57  55  94 CALM      29.81F

......SURROUNDING SGF CWA......

CITY           SKY/WX    TMP DP  RH WIND       PRES   REMARKS
CHANUTE        CLOUDY    60  57  89 NW13      29.80R
PARSONS        CLOUDY    61  59  93 CALM      29.79F
COFFEYVILLE    CLOUDY    61  59  93 CALM      29.76F
EMPORIA        LGT RAIN  54  51  90 N8        29.81F
SILOAM SPRINGS PTCLDY    59  52  77 SE5       29.80F
HARRISON AR    FOG       58  58 100 E3        29.80F VSB 1/2
NEAR YELLVILLE MOCLDY    61 N/A N/A CALM      29.78F

......KANSAS AND MISSOURI......

CITY           SKY/WX    TMP DP  RH WIND       PRES   REMARKS
KANSAS CTY INT CLOUDY    57  57 100 SE6       29.81F
DOWNTOWN KC    CLOUDY    61  58  90 E3        29.80F
COLUMBIA       CLEAR     58  54  86 E5        29.81F
SEDALIA        MOCLDY    59  58  96 S3        29.82F FOG
ST JOSEPH      FOG       52  52 100 CALM      29.82S VSB 1/4
ST LOUIS       MOCLDY    65  56  72 E5        29.83F
SPIRIT OF STL  MOCLDY    64  57  78 CALM      29.81F
KIRKSVILLE     CLOUDY    60  58  92 E7        29.84F
WICHITA        TSTM      55  53  93 SW6       29.86R FOG
TOPEKA         CLOUDY    57  52  83 W7        29.83S
OLATHE         CLOUDY    59  58  96 CALM      29.80F

......TENNESSEE......

CITY           SKY/WX    TMP DP  RH WIND       PRES   REMARKS
MEMPHIS        CLOUDY    67  62  84 SE9       29.78F
NASHVILLE      CLOUDY    65  63  93 CALM      29.84F

......ARKANSAS.......

CITY           SKY/WX    TMP DP  RH WIND       PRES   REMARKS
FAYETTEVILLE   PTCLDY    54  54 100 E3        29.79F
FT SMITH       CLEAR     63  59  87 CALM      29.78F
LITTLE ROCK    CLOUDY    65  61  87 CALM      29.77F

......OKLAHOMA.......

CITY           SKY/WX    TMP DP  RH WIND       PRES   REMARKS
TULSA          TSTM      59  57  93 W12       29.80S
PONCA CITY     LGT RAIN  52  49  89 N10       29.86R
MCALESTER      TSTM      60  56  86 SE6       29.80R
OKLAHOMA CITY  CLOUDY    63  50  62 NE9       29.77R

......IOWA............

CITY           SKY/WX    TMP DP  RH WIND       PRES   REMARKS
DES MOINES     CLOUDY    60  57  89 SE9       29.83R
QUAD CITIES    CLOUDY    58  41  53 E13       29.88F

......ILLINOIS........

CITY           SKY/WX    TMP DP  RH WIND       PRES   REMARKS
QUINCY         CLOUDY    62  57  83 W7        29.86S
CHICAGO        CLOUDY    50  35  56 E5        29.97F



USA.gov is the U.S. government's official web portal to all federal, state and local government web resources and services.